This demonstration page uses our WeatherBlox Daily Observations layout. Learn more.

Left ArrowRight Arrow

36.19886, -115.1175

Hourly Observations for February 4, 2022

Temp ( °F °C ) Dew Point ( °F °C ) Humidity (%) Winds ( mph kmh ) Pressure ( in mb ) Visibility ( mi km ) Precip ( " mm )
12:53 am 00:53 Clear 39 3.9 12 -11.1 33 33 Calm 30.53 1034 10 16 0.00 0.00
1:53 am 01:53 Clear 36 2.2 11 -11.7 35 35 NW 6 9 30.55 1034 10 16 0.00 0.00
2:53 am 02:53 Clear 37 2.8 12 -11.1 36 36 W 6 9 30.56 1035 10 16 0.00 0.00
3:53 am 03:53 Clear 36 2.2 12 -11.1 37 37 SSW 3 6 30.56 1035 10 16 0.00 0.00
4:53 am 04:53 Clear 35 1.7 12 -11.1 38 38 NW 6 9 30.58 1035 10 16 0.00 0.00
5:53 am 05:53 Clear 38 3.3 12 -11.1 34 34 NNW 7 11 30.59 1036 10 16 0.00 0.00
6:53 am 06:53 Sunny 37 2.8 12 -11.1 36 36 NW 5 7 30.63 1037 10 16 0.00 0.00
7:53 am 07:53 Sunny 42 5.6 13 -10.6 30 30 NNE 7 11 30.65 1038 10 16 0.00 0.00
8:53 am 08:53 Sunny 46 7.8 14 -10 27 27 NNW 10 17 30.63 1037 10 16 0.00 0.00
9:53 am 09:53 Sunny 48 8.9 14 -10 25 25 ENE 6 9 30.63 1037 10 16 0.00 0.00
10:53 am 10:53 Sunny 50 10 14 -10 24 24 E 5 7 30.63 1037 10 16 0.00 0.00
11:53 am 11:53 Sunny 52 11.1 14 -10 22 22 ESE 7 11 30.59 1036 10 16 0.00 0.00
12:53 pm 12:53 Sunny 53 11.7 13 -10.6 20 20 NW 3 6 30.55 1035 10 16 0.00 0.00
1:53 pm 13:53 Sunny 55 12.8 13 -10.6 19 19 VRB 3 6 30.53 1034 10 16 0.00 0.00
2:53 pm 14:53 Sunny 56 13.3 12 -11.1 17 17 W 3 6 30.51 1033 10 16 0.00 0.00
3:53 pm 15:53 Sunny 56 13.3 11 -11.7 17 17 NNW 3 6 30.50 1033 10 16 0.00 0.00
4:53 pm 16:53 Sunny 55 12.8 12 -11.1 18 18 W 7 11 30.50 1033 10 16 0.00 0.00
5:53 pm 17:53 Clear 53 11.7 12 -11.1 19 19 WSW 3 6 30.50 1033 10 16 0.00 0.00
6:53 pm 18:53 Clear 48 8.9 11 -11.7 22 22 WNW 5 7 30.51 1033 10 16 0.00 0.00
7:53 pm 19:53 Clear 46 7.8 13 -10.6 26 26 WNW 7 11 30.51 1033 10 16 0.00 0.00
8:53 pm 20:53 Clear 44 6.7 13 -10.6 28 28 WNW 7 11 30.50 1033 10 16 0.00 0.00
9:53 pm 21:53 Clear 43 6.1 13 -10.6 29 29 WNW 7 11 30.50 1033 10 16 0.00 0.00
10:53 pm 22:53 Clear 43 6.1 12 -11.1 28 28 NW 6 9 30.48 1032 10 16 0.00 0.00
11:53 pm 23:53 Clear 42 5.6 12 -11.1 29 29 Calm 30.48 1032 10 16 0.00 0.00

Powered by AerisWeather